Location: Newark
(41.0400°S, 62.7845°W)
Time: 00:27:32
(UTC+00:00)

Vanguard 3 - All Passes

Search period start: 07 December 2021 00:00
Search period end: 17 December 2021 00:00
Orbit: 508 x 3260 km, 33.4° (Epoch: 06 December)

Date Brightness Start Highest point End Pass type
(mag) Time Alt. Az. Time Alt. Az. Time Alt. Az.
07 Dec - 00:01:58 10° WNW 00:06:44 28° NNW 00:14:02 10° NE visible
07 Dec - 02:15:02 10° NW 02:19:11 14° NNW 02:24:22 10° N visible
07 Dec - 18:29:51 10° N 18:30:55 11° NNE 18:31:58 10° NE daylight
07 Dec - 20:38:15 10° NW 20:41:33 28° N 20:45:38 10° ENE daylight
07 Dec - 22:48:31 10° WNW 22:52:35 31° N 22:58:38 10° NE daylight
08 Dec - 01:00:03 10° WNW 01:04:28 18° NNW 01:10:32 10° NNE visible
08 Dec - 19:25:06 10° NW 19:27:58 20° NNE 19:30:56 10° ENE daylight
08 Dec - 21:35:11 10° WNW 21:38:44 31° N 21:43:29 10° ENE daylight
08 Dec - 23:46:02 10° WNW 23:50:06 22° NNW 23:55:51 10° NNE daylight
09 Dec - 18:12:08 10° NNW 18:14:18 14° NNE 18:16:20 10° NE daylight
09 Dec - 20:21:49 10° NW 20:25:03 28° N 20:28:46 10° ENE daylight
09 Dec - 22:32:25 10° WNW 22:36:02 25° N 22:41:01 10° NE daylight
10 Dec - 00:44:54 10° NW 00:47:46 13° NNW 00:51:16 10° N visible
10 Dec - 19:08:19 10° NW 19:11:26 23° N 19:14:28 10° ENE daylight
10 Dec - 21:18:56 10° WNW 21:22:14 27° N 21:26:20 10° NE daylight
10 Dec - 23:30:19 10° NW 23:33:30 17° NNW 23:37:35 10° NNE daylight
11 Dec - 17:54:42 10° NNW 17:57:45 18° NNE 18:00:23 10° ENE daylight
11 Dec - 20:05:20 10° WNW 20:08:33 27° N 20:12:00 10° ENE daylight
11 Dec - 22:16:24 10° WNW 22:19:29 20° NNW 22:23:25 10° NE daylight
12 Dec - 16:41:13 10° NNW 16:43:52 14° NNE 16:46:08 10° NE daylight
12 Dec - 18:51:29 10° NW 18:54:55 25° N 18:58:03 10° ENE daylight
12 Dec - 21:02:39 10° WNW 21:05:43 24° N 21:09:16 10° NE daylight
12 Dec - 23:15:09 10° NW 23:16:54 12° NNW 23:18:52 10° N daylight
13 Dec - 15:29:06 10° NNE 15:29:46 10° NNE 15:30:23 10° NNE daylight
13 Dec - 17:37:19 10° NW 17:41:12 22° N 17:44:18 10° ENE daylight
13 Dec - 19:48:46 10° WNW 19:52:04 27° N 19:55:19 10° NE daylight
13 Dec - 22:00:31 10° NW 22:02:56 16° NNW 22:05:45 10° NNE daylight
14 Dec - 16:23:02 10° NNW 16:27:17 19° NNE 16:30:32 10° ENE daylight
14 Dec - 18:34:32 10° WNW 18:38:25 28° N 18:41:40 10° ENE daylight
14 Dec - 20:46:21 10° WNW 20:49:11 20° NNW 20:52:13 10° NE daylight
15 Dec - 15:08:57 10° NNW 15:13:07 15° NNE 15:16:22 10° NE daylight
15 Dec - 17:19:56 10° NW 17:24:39 27° N 17:28:10 10° ENE daylight
15 Dec - 19:32:07 10° WNW 19:35:33 26° N 19:38:43 10° NE daylight
15 Dec - 21:44:57 10° NW 21:46:21 12° NNW 21:47:49 10° N daylight
16 Dec - 13:55:59 10° N 13:58:37 11° NNE 14:00:55 10° NE daylight
16 Dec - 16:05:02 10° NW 16:10:41 24° NNE 16:14:39 10° ENE daylight
16 Dec - 18:17:31 10° WNW 18:21:54 30° N 18:25:19 10° ENE daylight
16 Dec - 20:30:02 10° WNW 20:32:37 17° NNW 20:35:13 10° NNE daylight
